Regional Weather Roundup
Issued by NWS

Home | Current Version | Previous Version | Graphics & Text | Print | Product List | Glossary On
Versions: 1 2 3 4 5 6 7 8 9 10 11 12 13 14 15 16 17 18 19 20 21 22 23 24 25 26 27 28 29 30 31 32 33 34 35 36 37 38 39 40 41 42 43 44 45 46 47 48 49 50
000
ASUS43 KOAX 290602
RWRNE
OMARWRNE ALL

WEATHER ROUNDUP FOR NEBRASKA
NATIONAL WEATHER SERVICE OMAHA NE
100 AM CDT FRI MAY 29 2015

NOTES: SATELLITE DATA IS BEING USED TO AUGMENT CLOUD COVER ABOVE
       12000 FEET.
       "FAIR" INDICATES FEW OR NO CLOUDS BELOW 12,000 FEET WITH NO
       SIGNIFICANT WEATHER AND/OR OBSTRUCTIONS TO VISIBILITY.

  * THESE STATIONS DO NOT REPORT WEATHER SUCH AS RAIN...SNOW OR FOG.

NEZ001>004-019>022-054>056-290700-
NEBRASKA PANHANDLE

CITY           SKY/WX    TMP DP  RH WIND       PRES   REMARKS
SCOTTSBLUFF    CLOUDY    55  52  89 N7        30.07F
6HR MIN TEMP:  55; 6HR MAX TEMP:  68; 6HR PCP:  0.06;

ALLIANCE       CLOUDY    55  53  93 NW8       30.03F
6HR MIN TEMP:  54; 6HR MAX TEMP:  63; 6HR PCP:  0.09;

CHADRON        CLOUDY    54  52  93 W6        30.04S
6HR MIN TEMP:  54; 6HR MAX TEMP:  71; 6HR PCP: TRACE;

KIMBALL          N/A    N/A N/A N/A MISG        N/A
SIDNEY         CLOUDY    53  50  89 N5        30.08F
6HR MIN TEMP:  52; 6HR MAX TEMP:  57; 6HR PCP:  0.01;

$$

NEZ057>060-069>072-079>082-290700-
SOUTHWEST NEBRASKA

CITY           SKY/WX    TMP DP  RH WIND       PRES   REMARKS
NORTH PLATTE   CLOUDY    58  54  86 W12       29.97S
6HR MIN TEMP:  56; 6HR MAX TEMP:  60; 6HR PCP:  0.23;

IMPERIAL       CLOUDY    54  52  93 N7        30.02R
6HR MIN TEMP:  54; 6HR MAX TEMP:  58; 6HR PCP:  0.47;

LEXINGTON      CLOUDY    57  55  92 S6        29.94S
MCCOOK         CLOUDY    56  54  93 W6        29.99S
6HR MIN TEMP:  55; 6HR MAX TEMP:  72; 6HR PCP:  0.27;

$$

NEZ005>010-023>029-035>040-094-290700-
NORTH CENTRAL NEBRASKA

CITY           SKY/WX    TMP DP  RH WIND       PRES   REMARKS
VALENTINE      CLOUDY    57  55  93 NW9       29.94R
6HR MIN TEMP:  57; 6HR MAX TEMP:  70; 6HR PCP: TRACE;

AINSWORTH      CLOUDY    60  56  88 CALM      29.92F
BROKEN BOW     CLOUDY    59  57  93 MISG      29.92R
6HR MIN TEMP:  59; 6HR MAX TEMP:  75; 6HR PCP:  0.06;

ORD            CLOUDY    58  56  93 W3        29.87F
6HR MIN TEMP:  58; 6HR MAX TEMP:  75; 6HR PCP:  0.10;

$$

NEZ041-046>049-061>064-073>077-083>087-290700-
SOUTH CENTRAL NEBRASKA

CITY           SKY/WX    TMP DP  RH WIND       PRES   REMARKS
GRAND ISLAND   CLOUDY    62  59  90 S5        29.92R
6HR MIN TEMP:  61; 6HR MAX TEMP:  76; 6HR PCP:  0.23;

HASTINGS       CLOUDY    62  59  90 CALM      29.93S
6HR MIN TEMP:  62; 6HR MAX TEMP:  73; 6HR PCP:  0.36;

KEARNEY *      CLOUDY    61  55  82 S8        29.94S
$$

NEZ011>018-030>034-042>045-290700-
NORTHEAST NEBRASKA

CITY           SKY/WX    TMP DP  RH WIND       PRES   REMARKS
NORFOLK        CLOUDY    68  64  87 S10       29.87F
6HR MIN TEMP:  68; 6HR MAX TEMP:  75;

BLAIR          MOCLDY    66  62  87 S12       29.92S
COLUMBUS *     CLOUDY    70  61  73 S13G18    29.92R
FREMONT        CLOUDY    68  64  87 SE10G17   29.91F
TEKAMAH        MOCLDY    65  63  93 SE5       29.90F
6HR MIN TEMP:  65; 6HR MAX TEMP:  73;

$$

NEZ050>053-065>068-078-088>093-290700-
SOUTHEAST NEBRASKA

CITY           SKY/WX    TMP DP  RH WIND       PRES   REMARKS
LINCOLN        CLOUDY    68  64  87 S12       29.93R
6HR MIN TEMP:  68; 6HR MAX TEMP:  76;

OMAHA EPPLEY   CLOUDY    68  63  84 S14       29.92S
6HR MIN TEMP:  67; 6HR MAX TEMP:  72;

FALLS CITY     MOCLDY    65  62  90 S8        29.94S
6HR MIN TEMP:  65; 6HR MAX TEMP:  73;

NEBRASKA CITY  CLOUDY    65  64  96 S12       29.94F
PLATTSMOUTH    MOCLDY    66  62  86 S13       29.94R
$$

NEZ044-045-051>053-067-290700-
OMAHA AREA

CITY           SKY/WX    TMP DP  RH WIND       PRES   REMARKS
OMAHA EPPLEY   CLOUDY    68  63  84 S14       29.92S
6HR MIN TEMP:  67; 6HR MAX TEMP:  72;

BLAIR          MOCLDY    66  62  87 S12       29.92S
FREMONT        CLOUDY    68  64  87 SE10G17   29.91F
OFFUTT AFB     MOCLDY    66  63  90 SE9       29.92S
PLATTSMOUTH    MOCLDY    66  62  86 S13       29.94R
$$


USA.gov is the U.S. government's official web portal to all federal, state and local government web resources and services.